Temp
84 96 95 89 75 75 65 67 75 72 73 79 80 77 76 78 73 65 81 84 85 85 83 80 75 75 76 75 76 76 76 77 77 77 77 77 76 77 77 76 75 76 77 76 76 75 74 73 73
89 93 92 85 72 67 66 72 70 75 77 79 79 78 77 74 79 75 77 82 85 85 84 82 72 75 75 75 75 76 76 76 77 76 77 76 76 77 77 76 75 76 76 76 76 75 74 73 73
92 93 83 77 72 66 66 73 74 73 76 77 76 79 79 76 79 80 83 82 85 85 86 80 72 74 75 75 75 75 75 76 76 76 76 76 75 76 76 76 75 76 76 76 75 74 73 72 72
88 90 86 72 67 70 72 75 77 74 75 77 78 75 80 82 80 84 83 83 83 84 85 73 73 74 74 74 75 75 75 75 75 76 76 75 76 76 75 75 75 75 75 75 75 74 73 72 72
92 85 72 68 68 72 76 76 78 75 76 76 77 75 76 79 82 82 81 83 82 83 84 79 72 73 74 74 74 75 75 75 75 75 75 75 74 75 74 75 74 74 75 74 74 73 72 71 71
79 81 67 65 68 72 75 77 78 77 76 77 75 76 76 77 77 79 82 82 84 82 82 79 70 70 72 73 73 74 74 74 74 74 74 74 74 74 73 73 74 74 74 74 73 72 71 71 70
73 71 66 68 68 69 72 77 76 77 76 76 79 73 76 76 79 80 81 83 82 82 81 79 78 74 68 70 71 72 73 73 73 73 73 72 72 73 72 72 73 72 72 73 72 71 71 70 69
77 73 66 68 67 67 73 76 77 76 76 80 81 75 74 78 78 79 80 81 81 80 80 81 77 78 77 76 67 69 70 71 71 70 69 67 68 70 68 68 70 72 72 71 71 71 70 70 68
77 66 63 67 68 71 74 73 76 79 78 78 79 79 78 79 78 77 77 77 78 77 79 81 80 76 76 75 73 66 67 67 67 67 65 65 76 74 71 68 68 70 70 70 70 70 69 67 66
70 65 67 76 76 73 75 74 75 74 75 76 77 79 77 76 75 74 74 74 75 74 76 80 80 78 75 76 75 77 77 76 76 74 73 76 78 77 75 68 65 67 67 68 69 68 67 65 74
70 64 73 75 75 76 74 73 77 73 71 77 77 80 76 76 75 76 76 77 76 78 78 79 79 80 75 74 74 78 78 77 77 76 75 77 77 74 74 72 71 71 63 71 69 69 72 75 76
62 69 72 73 74 71 70 75 72 73 75 82 84 85 82 76 77 77 78 79 78 77 78 78 80 79 77 78 78 78 78 77 77 76 76 75 75 73 73 74 73 72 72 73 73 73 74 73 74
61 68 71 72 70 70 72 68 70 72 78 81 81 81 80 81 79 81 82 81 80 77 78 78 79 79 78 77 78 78 77 76 77 77 76 76 74 73 74 74 74 73 74 73 72 73 72 72 73
67 67 69 70 68 69 65 68 71 72 79 78 78 78 79 80 81 81 80 80 79 79 79 79 77 78 78 77 77 77 78 77 77 76 75 74 75 74 74 73 73 73 74 74 73 73 73 72 72
65 58 64 66 67 65 67 61 64 74 76 76 77 78 79 79 83 81 83 80 81 80 80 79 77 78 77 77 77 77 77 76 75 76 76 74 74 74 74 72 72 73 74 73 73 73 73 72 72
57 59 52 65 67 67 63 55 70 78 76 75 76 78 79 80 82 83 84 84 83 81 79 80 78 77 76 77 77 77 76 75 74 76 75 74 73 74 73 72 72 73 73 72 72 71 70 70 71
55 49 53 58 67 65 61 58 70 76 75 74 75 77 78 79 81 83 84 84 84 82 80 78 78 76 76 76 76 76 74 74 73 74 75 74 73 73 74 72 73 73 72 71 71 71 71 69 70
48 49 55 56 64 62 59 59 66 71 70 71 73 76 77 78 80 83 83 84 84 83 81 79 77 75 75 75 74 74 71 70 71 70 74 74 73 73 72 73 73 73 71 70 70 69 71 70 71
58 56 55 60 65 59 59 59 63 68 70 70 72 73 75 77 82 84 83 83 82 81 80 79 76 75 74 72 70 70 66 65 66 68 71 73 73 73 72 72 73 72 70 70 70 69 68 67 70
55 53 53 58 61 57 56 56 62 66 67 69 71 72 74 76 80 82 83 82 80 79 78 78 77 75 74 73 72 72 71 69 69 68 69 71 73 74 72 71 71 71 70 69 69 68 66 68 69
49 48 50 52 58 60 56 52 57 65 68 70 72 73 75 75 77 80 81 83 82 80 78 77 77 75 74 74 74 73 74 72 70 68 68 71 73 73 72 72 71 70 70 68 68 68 66 64 67
45 56 54 51 46 40 57 41 55 62 64 68 71 74 76 77 78 79 79 80 81 80 80 79 77 76 74 75 74 72 70 68 70 70 70 70 72 72 72 71 71 70 70 68 69 69 67 66 64
49 57 53 51 48 47 49 42 52 62 60 65 70 73 76 78 78 79 79 80 81 80 79 78 77 75 74 73 75 73 71 72 72 72 69 70 70 72 72 71 70 70 70 69 69 68 67 67 65
57 52 51 49 42 32 44 43 48 57 62 66 71 74 75 77 78 79 80 79 79 79 78 77 76 77 74 74 74 73 71 71 71 69 68 68 70 69 70 70 69 69 70 69 69 69 67 66 66
52 46 32 30 30 33 52 43 50 61 65 67 68 72 74 77 75 74 74 75 76 76 75 75 76 75 77 74 73 73 72 71 71 70 69 68 67 68 68 69 68 68 69 70 69 68 67 66 65
46 45 36 29 32 39 49 40 50 64 68 68 70 72 71 71 74 73 72 72 72 72 74 74 73 74 76 76 72 73 72 71 72 72 71 69 69 69 70 69 69 68 69 69 70 68 67 66 65
46 39 50 39 37 33 44 51 59 63 63 66 68 70 69 70 70 71 71 70 70 69 70 72 71 72 73 74 73 71 71 71 71 71 72 72 72 71 72 69 68 68 68 68 68 66 65 64 64
51 53 36 35 28 28 41 45 49 57 62 67 68 67 68 69 70 70 71 71 69 68 68 68 69 69 71 71 73 71 71 70 71 71 70 71 72 72 71 70 67 66 66 66 66 64 64 63 62
45 43 44 44 38 34 34 45 62 62 65 64 66 65 66 66 67 70 70 71 71 68 66 65 66 65 67 69 70 70 70 70 70 70 70 71 71 72 71 70 68 66 64 63 63 62 62 60 60
51 47 47 38 36 40 39 41 64 63 64 64 64 64 66 67 69 70 69 69 71 70 70 65 64 61 63 66 68 68 69 69 69 69 70 71 70 71 70 69 69 68 66 64 61 60 60 59 58
MSLP
1012.74 1011.46 1011.01 1010.40 1009.70 1009.15 1009.67 1010.59 1010.93 1011.17 1011.25 1011.93 1012.02 1012.05 1012.16 1012.28 1012.77 1014.42 1015.54 1015.83 1016.01 1016.49 1017.41 1018.35 1018.84 1019.03 1019.24 1019.51 1019.68 1019.68 1019.78 1019.98 1020.26 1020.50 1020.65 1020.87 1020.97 1020.92 1020.87 1020.90 1021.04 1021.18 1021.34 1021.43 1021.52 1021.66 1021.78 1021.93 1022.05
1012.60 1011.47 1010.60 1009.65 1009.02 1008.49 1009.73 1010.77 1010.89 1011.46 1011.97 1012.29 1012.44 1012.36 1012.05 1012.63 1013.68 1014.99 1015.57 1016.16 1016.19 1016.66 1017.43 1018.05 1018.98 1019.24 1019.47 1019.63 1019.91 1019.99 1020.05 1020.19 1020.36 1020.73 1020.98 1021.21 1021.31 1021.24 1021.30 1021.31 1021.37 1021.49 1021.71 1021.79 1021.90 1022.06 1022.26 1022.47 1022.54
1012.09 1011.48 1010.25 1009.52 1009.23 1009.08 1009.86 1010.78 1011.38 1012.35 1012.61 1012.46 1012.31 1012.66 1012.58 1012.99 1014.11 1014.69 1015.50 1016.19 1016.33 1016.84 1017.24 1018.26 1019.06 1019.32 1019.64 1019.85 1020.01 1020.21 1020.39 1020.45 1020.64 1020.90 1021.27 1021.49 1021.67 1021.63 1021.66 1021.76 1021.85 1021.89 1022.07 1022.16 1022.31 1022.52 1022.72 1022.85 1022.98
1012.03 1010.58 1010.40 1009.82 1009.67 1010.54 1010.75 1011.04 1011.48 1012.18 1012.80 1012.89 1012.62 1012.27 1013.29 1014.16 1014.38 1014.91 1015.84 1016.26 1016.59 1017.03 1017.34 1018.72 1019.24 1019.57 1019.84 1020.02 1020.18 1020.36 1020.51 1020.68 1020.88 1021.11 1021.49 1021.78 1021.90 1022.05 1022.10 1022.01 1022.13 1022.21 1022.39 1022.57 1022.73 1022.97 1023.12 1023.19 1023.29
1011.74 1011.07 1010.25 1010.17 1010.40 1011.03 1011.27 1011.72 1011.71 1011.85 1012.18 1012.54 1012.99 1012.69 1013.22 1014.60 1015.14 1015.77 1016.25 1016.52 1016.78 1017.28 1017.55 1018.67 1019.35 1019.67 1019.99 1020.25 1020.37 1020.46 1020.60 1020.88 1021.11 1021.32 1021.76 1022.07 1022.25 1022.32 1022.44 1022.40 1022.44 1022.59 1022.74 1022.98 1023.11 1023.33 1023.44 1023.55 1023.60
1011.98 1011.79 1010.82 1010.25 1010.68 1011.43 1011.80 1012.04 1011.90 1011.99 1012.42 1012.64 1012.86 1012.93 1013.78 1015.28 1015.52 1015.85 1016.37 1016.57 1016.91 1017.45 1017.84 1018.65 1019.43 1019.74 1020.06 1020.41 1020.57 1020.64 1020.75 1021.03 1021.33 1021.55 1021.97 1022.38 1022.56 1022.56 1022.64 1022.69 1022.74 1022.93 1023.03 1023.19 1023.42 1023.59 1023.68 1023.82 1023.89
1012.78 1012.09 1011.37 1010.96 1011.13 1011.65 1012.00 1012.47 1012.11 1012.03 1012.29 1012.50 1013.10 1012.97 1014.16 1015.11 1015.85 1016.13 1016.29 1016.74 1016.99 1017.57 1018.07 1018.70 1019.28 1019.84 1020.18 1020.47 1020.69 1020.88 1020.97 1021.24 1021.48 1021.66 1022.09 1022.52 1022.78 1022.88 1022.90 1023.01 1023.07 1023.28 1023.35 1023.41 1023.61 1023.73 1023.89 1024.02 1024.15
1013.49 1012.96 1011.90 1011.69 1011.32 1011.40 1012.42 1012.56 1012.78 1012.48 1012.26 1013.22 1013.27 1012.83 1013.56 1014.71 1016.00 1016.68 1016.70 1016.88 1017.31 1017.61 1018.11 1018.17 1018.98 1019.47 1019.96 1020.51 1020.86 1020.95 1021.17 1021.36 1021.62 1021.87 1022.34 1022.76 1023.00 1023.16 1023.27 1023.31 1023.30 1023.51 1023.70 1023.80 1023.89 1024.01 1024.06 1024.19 1024.31
1014.26 1013.32 1011.97 1011.45 1011.48 1011.63 1012.73 1012.72 1013.13 1013.07 1012.70 1013.01 1013.16 1013.47 1014.42 1015.05 1015.60 1016.37 1016.80 1017.14 1017.25 1017.65 1018.05 1018.12 1018.49 1019.23 1019.54 1020.10 1020.77 1021.26 1021.34 1021.49 1021.69 1022.11 1022.49 1022.82 1022.63 1023.14 1023.42 1023.38 1023.50 1023.62 1023.89 1024.03 1024.09 1024.19 1024.32 1024.40 1024.48
1014.19 1013.08 1011.94 1011.53 1011.60 1012.00 1012.53 1012.87 1012.83 1013.07 1012.83 1012.63 1012.99 1013.81 1014.79 1015.22 1015.54 1015.71 1016.35 1016.58 1017.03 1017.65 1017.62 1018.07 1018.25 1018.91 1019.52 1019.90 1020.43 1020.83 1021.20 1021.48 1021.76 1022.12 1022.55 1022.43 1022.15 1022.44 1022.84 1023.38 1023.72 1023.83 1024.01 1024.10 1024.24 1024.33 1024.47 1024.45 1024.06
1013.98 1013.15 1012.37 1012.07 1012.53 1012.59 1012.74 1013.02 1013.19 1013.12 1012.41 1012.17 1012.27 1012.79 1014.13 1014.60 1014.98 1015.02 1015.40 1015.79 1016.58 1016.95 1017.71 1017.74 1018.21 1018.28 1019.22 1019.64 1020.01 1020.16 1020.61 1021.00 1021.25 1021.60 1022.08 1022.01 1022.05 1022.65 1022.94 1023.30 1023.69 1023.76 1024.16 1024.04 1024.19 1024.38 1024.07 1023.68 1023.66
1014.42 1013.79 1013.23 1012.97 1013.08 1013.69 1013.44 1013.37 1013.20 1012.99 1012.63 1012.29 1012.10 1012.32 1012.87 1013.83 1014.00 1014.41 1014.54 1014.88 1015.60 1016.41 1016.87 1017.70 1017.96 1018.18 1018.73 1019.24 1019.40 1019.44 1019.85 1020.44 1020.69 1021.11 1021.57 1021.88 1022.14 1022.46 1022.64 1022.74 1023.11 1023.33 1023.63 1023.45 1023.73 1023.77 1023.73 1023.86 1023.88
1015.04 1014.02 1013.74 1013.96 1014.14 1014.26 1014.04 1013.79 1013.55 1012.72 1012.72 1012.80 1012.72 1012.57 1012.64 1012.86 1013.18 1013.40 1013.72 1014.19 1014.85 1015.55 1016.08 1016.86 1017.43 1017.89 1018.11 1018.52 1018.86 1019.11 1019.44 1019.99 1020.25 1020.58 1021.01 1021.50 1021.88 1022.05 1022.24 1022.44 1022.73 1023.00 1023.19 1023.27 1023.46 1023.49 1023.69 1023.84 1023.78
1014.76 1014.67 1014.23 1014.12 1014.44 1014.46 1014.38 1013.77 1013.49 1012.66 1012.53 1012.22 1012.25 1012.19 1012.22 1012.14 1012.29 1012.64 1012.81 1013.16 1013.83 1014.57 1015.21 1015.93 1016.73 1017.36 1017.76 1018.05 1018.43 1018.65 1019.12 1019.37 1019.97 1020.32 1020.66 1021.15 1021.32 1021.59 1021.87 1022.09 1022.41 1022.67 1022.77 1022.97 1023.09 1023.22 1023.41 1023.56 1023.67
1015.66 1015.48 1014.77 1014.47 1014.41 1014.44 1014.54 1013.46 1012.92 1012.08 1012.26 1011.72 1011.51 1011.44 1011.51 1011.64 1011.69 1011.84 1012.10 1012.39 1012.73 1013.25 1014.20 1014.95 1015.81 1016.44 1017.15 1017.52 1018.16 1018.44 1018.51 1019.08 1019.39 1019.79 1020.30 1020.66 1021.09 1021.19 1021.51 1021.86 1022.08 1022.24 1022.55 1022.71 1022.89 1022.99 1023.18 1023.25 1023.41
1016.11 1015.56 1014.69 1013.72 1013.77 1014.08 1014.48 1012.26 1011.76 1011.17 1011.13 1010.85 1010.90 1010.68 1010.66 1010.70 1010.92 1011.29 1011.49 1011.60 1012.18 1012.75 1013.28 1013.99 1014.81 1015.62 1016.31 1016.85 1017.41 1018.01 1018.43 1018.87 1019.21 1019.22 1019.79 1020.21 1020.41 1020.80 1021.11 1021.35 1021.67 1021.92 1022.18 1022.52 1022.60 1022.71 1022.93 1022.99 1023.05
1015.47 1014.69 1014.09 1013.62 1013.51 1013.64 1013.81 1012.16 1011.42 1011.11 1010.82 1010.53 1010.48 1010.28 1010.09 1010.15 1010.33 1010.56 1010.87 1011.22 1011.54 1012.12 1012.62 1013.19 1014.06 1014.79 1015.39 1015.93 1016.61 1017.36 1017.87 1018.29 1018.74 1019.05 1019.15 1019.79 1020.05 1020.31 1020.49 1020.73 1020.96 1021.43 1021.82 1022.16 1022.17 1022.29 1022.49 1022.60 1022.67
1014.70 1014.40 1013.81 1012.78 1012.83 1013.28 1013.15 1012.35 1011.93 1011.57 1011.00 1010.56 1010.14 1009.90 1009.68 1009.57 1009.57 1009.91 1010.34 1010.76 1011.10 1011.62 1012.01 1012.40 1013.08 1014.01 1014.87 1015.43 1015.99 1016.46 1017.53 1018.04 1018.44 1018.59 1018.41 1018.74 1019.42 1019.67 1020.05 1020.22 1020.37 1020.71 1021.19 1021.61 1021.84 1021.91 1022.01 1022.25 1022.30
1014.44 1013.81 1013.12 1012.87 1012.77 1013.29 1012.86 1012.03 1011.61 1011.03 1010.23 1009.81 1009.58 1009.40 1009.15 1008.90 1008.87 1009.05 1009.41 1010.05 1010.51 1010.90 1011.49 1011.59 1011.99 1012.84 1013.99 1014.60 1015.12 1015.57 1016.13 1017.24 1017.84 1018.03 1017.91 1017.86 1018.31 1018.87 1019.28 1019.58 1019.72 1020.03 1020.48 1020.76 1021.12 1021.50 1021.71 1022.00 1022.13
1014.93 1014.22 1013.78 1013.87 1013.98 1014.25 1013.45 1011.80 1011.37 1010.67 1009.58 1009.21 1009.02 1008.69 1008.47 1008.28 1008.24 1008.10 1008.33 1008.82 1009.50 1010.18 1010.50 1011.03 1011.47 1012.01 1012.45 1013.13 1013.64 1014.37 1015.05 1015.89 1016.42 1016.94 1017.12 1017.07 1017.31 1017.81 1018.32 1018.70 1018.86 1019.12 1019.69 1020.04 1020.46 1020.87 1021.21 1021.33 1021.58
1015.20 1014.85 1014.66 1014.39 1014.25 1013.88 1013.44 1010.67 1009.96 1009.38 1008.62 1008.18 1008.13 1008.04 1007.79 1007.77 1007.49 1007.23 1007.41 1007.62 1008.13 1008.72 1009.40 1009.92 1010.30 1010.90 1011.74 1011.98 1012.99 1013.68 1014.33 1014.96 1015.30 1015.62 1015.95 1015.95 1016.34 1016.64 1017.17 1017.65 1018.06 1018.34 1018.73 1019.08 1019.48 1019.99 1020.48 1020.76 1020.97
1014.89 1015.27 1015.08 1015.21 1015.40 1014.56 1013.88 1010.50 1009.11 1008.67 1007.78 1007.08 1006.66 1006.36 1006.39 1006.63 1006.81 1006.59 1006.76 1006.93 1007.19 1007.51 1008.27 1008.88 1009.36 1009.89 1010.38 1011.28 1011.64 1011.99 1012.06 1012.31 1012.64 1013.51 1014.36 1014.93 1015.19 1015.60 1015.97 1016.60 1017.03 1017.41 1017.72 1018.18 1018.52 1019.02 1019.52 1020.10 1020.16
1014.84 1015.22 1015.41 1015.68 1015.35 1015.07 1014.07 1013.04 1008.57 1007.77 1006.62 1005.83 1005.69 1005.71 1005.72 1005.79 1005.85 1005.83 1005.93 1006.05 1006.44 1006.89 1007.31 1007.81 1008.38 1008.76 1009.24 1010.03 1010.20 1010.50 1011.07 1011.26 1011.90 1012.70 1013.38 1013.91 1014.09 1014.45 1014.73 1015.33 1015.93 1016.33 1016.75 1017.15 1017.61 1018.01 1018.56 1019.05 1019.37
1015.33 1015.88 1016.02 1016.19 1016.48 1015.31 1013.85 1013.15 1007.78 1006.95 1005.99 1005.47 1005.13 1005.01 1005.24 1005.43 1005.44 1005.64 1005.75 1005.88 1005.99 1006.26 1006.73 1007.07 1007.56 1008.01 1008.65 1008.72 1009.20 1009.48 1009.58 1009.99 1010.82 1011.49 1012.11 1012.45 1012.90 1013.36 1013.73 1014.22 1014.69 1015.07 1015.67 1015.96 1016.46 1016.95 1017.45 1017.98 1018.37
1015.44 1015.85 1016.20 1016.63 1016.31 1013.98 1012.42 1012.26 1007.81 1006.90 1006.23 1006.08 1005.33 1005.25 1005.39 1005.19 1005.67 1005.77 1005.72 1005.77 1005.66 1005.79 1006.03 1006.24 1006.59 1006.95 1007.25 1007.90 1008.00 1008.18 1008.65 1009.16 1009.21 1009.69 1010.52 1011.34 1011.68 1012.11 1012.20 1012.84 1013.42 1013.81 1014.25 1014.77 1015.37 1015.95 1016.30 1016.91 1017.22
1014.68 1015.37 1014.97 1014.64 1014.61 1012.97 1012.14 1009.87 1007.29 1006.39 1006.01 1005.75 1005.35 1005.50 1005.89 1005.82 1005.76 1005.90 1006.07 1006.05 1005.84 1005.74 1005.54 1005.55 1005.89 1006.14 1006.42 1006.49 1007.44 1007.47 1007.64 1008.20 1008.56 1008.87 1009.15 1009.67 1010.10 1010.38 1010.94 1011.73 1012.28 1012.64 1013.08 1013.66 1014.29 1014.85 1015.22 1015.73 1016.26
1014.18 1014.55 1014.51 1014.77 1014.77 1013.94 1011.24 1008.61 1007.03 1006.05 1005.82 1005.28 1005.22 1005.42 1005.63 1005.80 1006.12 1006.01 1006.10 1006.11 1005.70 1005.66 1005.62 1005.42 1005.68 1005.73 1005.72 1005.73 1006.27 1006.86 1007.20 1007.28 1007.40 1007.91 1008.42 1008.64 1008.90 1009.25 1009.85 1010.62 1011.22 1011.70 1012.25 1012.71 1013.38 1013.73 1014.06 1014.70 1015.08
1013.27 1014.00 1014.95 1015.42 1014.40 1012.89 1009.94 1007.91 1005.57 1004.84 1004.75 1004.49 1004.47 1005.21 1005.63 1005.94 1006.11 1006.02 1005.73 1005.72 1005.71 1005.46 1005.40 1005.35 1005.31 1005.42 1005.46 1005.23 1005.19 1005.76 1005.77 1006.52 1006.83 1007.21 1007.36 1007.65 1007.86 1008.37 1008.86 1009.44 1010.19 1010.78 1011.34 1011.91 1012.52 1012.86 1013.19 1013.72 1014.16
1013.31 1013.32 1013.74 1013.84 1013.61 1011.47 1009.22 1006.40 1004.65 1004.08 1003.91 1004.34 1004.74 1005.36 1005.89 1006.08 1006.12 1005.72 1005.50 1005.45 1005.50 1005.29 1004.99 1004.83 1005.03 1005.16 1005.39 1004.83 1004.53 1005.04 1004.44 1005.16 1005.86 1006.13 1006.34 1006.60 1006.95 1007.34 1007.76 1008.39 1009.06 1009.76 1010.35 1011.04 1011.60 1011.90 1012.40 1012.91 1013.31
1012.56 1012.21 1012.64 1012.41 1011.71 1011.54 1010.28 1006.32 1004.95 1004.76 1004.54 1004.74 1005.21 1005.66 1005.77 1005.97 1005.80 1005.64 1005.32 1005.13 1004.89 1004.83 1004.82 1004.39 1004.77 1005.13 1004.92 1004.77 1004.41 1004.69 1004.15 1004.19 1004.80 1005.05 1005.32 1005.78 1005.98 1006.42 1006.92 1007.50 1007.97 1008.45 1009.12 1009.92 1010.52 1010.83 1011.35 1011.88 1012.28
Wind_Speed
19 12 6 6 6 3 4 5 2 5 4 4 5 5 10 5 8 5 5 6 14 13 15 13 9 12 13 13 12 11 12 12 12 12 12 11 10 8 12 15 15 16 15 15 17 16 17 16 16
15 12 6 4 5 3 6 3 2 6 5 2 3 2 1 8 6 8 9 8 13 12 13 14 10 13 13 13 11 11 11 12 12 12 10 10 11 9 12 13 14 14 14 15 15 16 15 15 15
15 9 5 4 4 7 5 4 6 5 3 2 2 2 5 5 5 8 7 12 12 11 11 14 11 13 13 12 11 11 12 12 12 12 11 10 10 7 11 14 11 13 13 14 14 14 14 15 15
7 3 5 6 2 6 5 5 7 9 3 2 3 2 4 6 3 4 13 14 12 11 11 14 11 12 12 11 11 10 10 13 12 11 11 10 9 8 8 12 11 12 14 12 13 13 14 13 13
3 5 5 3 3 4 4 2 4 8 5 3 1 5 3 5 6 9 12 12 11 11 10 13 10 12 11 11 10 10 9 12 11 13 10 9 8 9 7 9 10 11 12 12 12 12 12 12 12
6 3 7 7 3 2 5 3 4 6 2 5 3 2 5 5 8 11 11 13 11 10 10 12 10 11 11 10 9 8 8 13 11 13 12 8 7 8 6 8 9 9 10 11 10 11 11 11 10
7 6 11 7 6 5 3 2 3 2 2 2 2 3 5 5 5 9 12 11 11 10 10 11 12 12 9 9 8 8 11 11 11 13 13 9 7 8 3 5 10 9 7 10 11 11 10 10 9
5 5 13 10 10 9 6 5 3 6 2 2 3 1 6 9 9 8 10 11 11 11 10 12 10 12 12 11 6 7 8 10 8 11 11 8 6 7 3 4 7 9 8 6 9 9 10 9 8
2 8 12 13 9 9 6 8 3 0 5 3 3 2 5 11 14 11 10 11 11 10 11 11 13 9 10 9 9 6 6 7 9 10 9 8 7 8 9 5 6 8 8 7 7 8 9 8 7
8 10 18 13 5 6 8 8 6 6 9 6 7 6 6 11 13 14 13 13 14 13 13 12 13 13 9 7 9 10 9 9 8 7 9 8 7 7 7 7 5 6 7 7 6 7 7 8 6
7 15 14 15 6 8 10 7 10 9 14 9 8 9 10 12 13 15 16 15 14 14 12 14 12 13 9 7 6 6 6 6 7 11 10 9 6 5 5 5 5 6 6 6 6 6 6 5 3
10 13 14 10 6 5 10 10 9 12 14 16 8 11 10 13 14 15 16 16 15 16 16 14 15 13 14 10 9 9 7 7 7 8 10 6 5 6 7 5 7 6 6 6 6 4 3 4 4
12 14 8 12 5 9 11 13 14 20 15 14 15 15 12 13 14 14 16 15 16 17 18 17 16 15 12 13 10 9 9 8 9 8 11 9 7 7 7 6 6 6 6 6 6 5 5 5 5
1 12 13 11 8 12 11 17 13 16 14 16 14 16 16 17 16 14 16 17 18 18 18 18 18 16 15 13 13 9 9 10 9 8 9 12 8 7 7 6 6 6 6 6 6 6 5 5 5
8 11 12 12 12 11 6 18 21 25 19 20 19 18 16 18 16 17 16 18 19 17 18 18 19 17 16 16 13 10 8 9 9 8 11 12 10 8 8 6 6 7 6 7 6 6 5 5 5
9 11 12 8 15 10 8 18 15 16 14 17 15 14 16 19 19 18 17 17 18 17 18 19 15 18 17 15 12 9 9 9 9 8 8 13 12 11 9 7 7 7 6 6 6 6 6 6 6
10 11 17 14 14 9 13 12 11 11 14 18 16 15 14 15 16 16 17 16 16 19 19 18 18 19 19 16 12 12 10 9 9 9 9 12 12 12 10 8 8 9 7 7 7 6 7 6 6
12 16 16 15 9 13 17 20 18 18 21 19 20 18 18 18 18 15 16 16 16 17 18 18 16 18 17 12 12 10 9 9 8 9 10 13 11 14 11 9 9 9 7 7 7 8 7 6 6
16 17 16 13 6 11 17 21 20 21 23 22 21 20 21 21 20 16 16 15 17 16 18 19 19 19 14 13 13 12 13 10 12 11 15 14 13 14 13 10 10 10 10 10 10 8 9 7 6
20 19 19 14 7 10 19 25 23 23 26 24 23 23 22 22 21 18 18 16 17 18 18 19 19 19 18 14 14 12 12 12 12 11 14 15 15 15 14 13 11 13 10 12 11 11 7 8 8
18 19 15 15 12 15 17 28 26 26 29 26 25 26 26 25 23 21 18 18 17 19 19 19 20 20 18 19 12 11 11 10 11 13 13 15 17 17 17 16 13 13 12 10 12 12 13 8 8
19 16 15 13 9 10 4 14 20 20 23 23 19 19 20 20 20 19 17 19 18 17 16 19 20 21 20 21 16 21 16 15 15 14 12 14 18 18 18 17 16 15 11 13 12 12 11 11 9
12 10 10 12 14 15 18 12 5 8 14 14 13 15 17 17 16 17 16 14 16 14 16 17 19 20 21 20 21 17 18 14 10 11 15 16 16 19 19 18 18 16 12 14 15 13 14 11 10
5 10 10 9 3 8 15 13 10 11 7 6 7 14 13 14 13 11 13 11 12 10 12 14 18 20 20 21 23 22 22 18 14 14 13 13 13 13 18 19 17 17 15 16 14 15 16 14 12
15 10 3 5 5 8 10 14 19 7 10 17 18 13 13 11 10 12 13 12 11 10 12 14 18 20 20 22 23 24 23 21 21 19 14 14 13 13 17 20 19 16 18 16 15 15 15 16 14
20 14 6 9 6 6 11 14 13 5 8 11 11 9 10 9 5 6 8 9 10 11 11 13 17 18 19 19 21 20 23 14 15 16 14 13 13 14 17 17 18 19 19 17 16 13 13 15 14
14 19 17 13 1 4 8 18 18 15 17 19 14 9 1 4 5 6 7 7 7 8 11 10 14 17 17 18 17 19 18 20 17 19 16 13 15 13 16 18 19 18 18 17 18 13 15 13 14
17 11 4 5 7 10 15 19 15 6 10 12 7 11 2 5 6 9 10 10 8 7 7 9 11 15 17 15 16 16 18 18 18 15 18 17 16 16 15 17 17 17 17 17 18 14 13 13 12
15 18 8 6 7 5 6 10 6 9 7 1 6 2 6 7 12 13 11 11 9 7 7 7 9 10 14 13 15 17 16 17 17 17 18 18 17 16 16 16 16 16 17 17 18 16 14 14 14
20 26 23 10 9 5 10 19 4 4 1 5 5 5 6 9 13 14 14 13 10 10 9 6 8 10 12 12 13 16 13 14 16 17 18 17 17 16 16 15 16 16 16 17 17 17 15 16 16
Wind_Direction
317 322 297 252 248 222 77 80 47 98 121 52 78 336 12 14 6 35 143 124 131 141 131 152 144 132 127 124 125 119 114 113 113 110 106 104 109 105 93 84 94 96 92 95 92 88 88 88 87
316 318 240 282 270 260 91 62 95 66 61 99 135 248 215 75 63 107 149 154 148 142 146 142 142 138 135 134 131 126 121 113 117 110 108 107 110 111 96 88 88 98 99 98 97 94 92 90 89
314 282 279 310 292 45 64 77 110 92 86 166 197 328 346 57 85 132 107 157 148 148 155 125 143 142 145 142 139 137 135 127 124 131 117 112 118 123 97 100 97 104 100 101 101 99 95 93 90
334 238 208 262 41 73 32 59 126 142 160 240 335 146 129 42 74 102 140 157 152 151 157 135 150 146 147 146 143 141 146 135 132 118 114 111 119 132 91 108 109 112 110 109 104 102 100 98 96
279 260 267 252 99 91 43 11 188 160 131 136 248 71 67 93 92 116 144 155 156 159 152 152 159 148 149 147 150 149 135 143 136 124 124 128 126 139 111 113 109 104 111 108 111 108 104 102 101
286 284 258 239 143 138 81 53 196 182 112 116 202 315 74 101 139 145 153 161 154 160 153 152 156 150 149 152 158 157 134 147 142 129 124 140 133 145 123 117 104 99 106 121 116 116 113 108 105
285 278 278 298 242 210 123 161 205 214 203 143 32 307 86 141 139 151 158 162 157 158 175 154 169 162 149 152 159 160 127 138 144 132 129 139 134 150 119 108 119 122 120 129 128 124 118 116 108
273 271 271 255 266 251 151 180 192 224 173 77 307 121 109 118 143 162 164 166 172 166 186 172 173 171 170 167 167 159 148 145 141 118 125 126 127 149 104 122 136 136 130 135 136 132 121 121 117
275 247 250 245 241 267 146 196 192 303 232 199 183 299 100 135 150 164 177 179 182 178 193 193 173 186 171 171 168 170 157 143 127 132 132 153 182 178 158 165 154 138 137 142 146 145 130 124 121
223 232 245 261 277 258 186 242 200 226 205 202 197 142 157 157 170 174 191 195 195 192 188 199 190 178 173 177 162 188 176 183 185 179 180 203 190 178 204 138 127 131 148 147 146 143 155 194 163
208 242 250 260 261 271 269 232 243 258 254 247 238 178 179 186 191 196 198 200 207 196 200 197 200 190 167 191 174 189 182 195 190 188 183 214 186 162 179 164 179 180 187 185 180 169 198 210 212
248 242 267 282 284 240 245 254 253 251 266 300 281 255 195 202 201 212 210 204 198 203 200 200 205 198 185 197 197 192 189 199 191 194 198 200 203 183 197 184 188 188 182 199 204 201 212 202 221
243 249 242 251 256 254 275 250 259 265 274 271 278 279 257 240 222 217 221 214 202 204 202 200 206 204 196 202 195 200 197 197 200 194 192 201 201 199 201 194 198 196 192 199 204 212 197 213 213
334 243 250 250 258 258 258 261 255 258 258 253 261 258 257 255 242 231 217 209 205 207 204 197 201 205 203 202 201 201 201 192 206 199 196 201 204 201 204 202 200 203 197 202 206 210 210 213 211
258 255 250 234 236 253 266 259 247 259 257 261 260 254 259 261 251 241 232 217 208 204 202 200 197 201 206 204 204 207 197 203 202 200 202 193 210 202 205 203 205 204 202 210 211 217 222 221 214
222 241 251 232 226 210 227 261 266 256 258 250 256 263 256 259 256 252 242 232 216 206 205 198 192 198 201 199 203 205 203 203 206 203 197 204 199 208 202 202 205 206 200 204 210 209 210 218 221
220 243 218 240 207 235 211 272 265 271 276 260 271 266 266 270 266 258 249 241 224 215 203 200 194 201 200 199 196 204 207 201 198 215 203 203 204 205 207 207 200 200 201 206 210 210 219 213 222
224 225 243 248 199 213 251 263 265 266 275 271 267 272 268 263 259 258 262 245 237 222 212 201 196 199 202 196 196 193 201 209 210 210 212 202 205 205 207 209 206 197 196 207 209 212 210 229 220
255 245 254 252 243 296 271 273 275 273 266 265 262 261 263 266 265 257 247 245 237 224 222 211 198 196 193 196 195 198 195 195 210 214 216 208 205 205 205 211 207 202 203 204 206 210 217 209 232
242 253 251 256 277 276 277 273 270 268 269 265 266 268 269 269 266 261 250 235 229 225 217 215 211 201 195 195 198 202 194 200 210 209 216 215 207 205 206 207 209 203 203 208 207 205 206 216 198
234 239 245 263 291 275 287 283 261 252 255 258 256 262 262 264 267 267 263 245 228 224 218 214 210 205 205 200 196 201 200 206 204 207 210 212 210 206 207 206 209 206 206 208 206 203 207 206 212
241 240 256 262 273 258 259 288 289 290 275 272 273 262 258 254 255 263 262 260 249 233 225 219 212 209 203 203 198 200 202 200 208 205 206 206 209 211 208 207 208 210 205 207 208 204 204 210 206
233 250 242 246 253 267 257 271 279 269 280 272 260 265 260 263 262 270 267 267 248 251 232 220 219 212 203 203 206 203 207 215 202 206 206 208 206 210 208 207 208 210 210 208 210 202 203 206 214
207 241 258 259 320 240 233 228 281 256 272 313 277 267 273 267 273 302 291 283 274 256 247 232 218 224 213 206 207 211 209 207 205 202 206 205 205 206 211 210 209 209 212 210 209 208 205 206 210
219 210 205 220 211 244 209 207 245 292 269 290 271 292 307 297 308 292 292 298 297 266 243 233 225 227 219 213 212 209 216 213 211 208 204 202 203 207 208 207 208 207 211 212 207 209 206 209 213
207 188 211 215 207 246 190 232 243 238 256 273 276 299 308 290 321 346 340 328 316 296 277 241 228 232 228 216 219 218 216 217 220 218 211 211 210 210 207 207 209 210 210 210 210 210 213 209 215
192 219 236 276 309 275 225 249 261 253 245 267 259 265 233 24 360 8 356 345 343 320 290 268 238 239 237 228 217 219 221 220 217 220 221 219 215 214 209 203 207 209 211 211 215 217 216 212 216
233 154 148 204 223 230 240 246 247 188 224 265 244 194 284 323 323 342 342 341 324 320 306 278 273 248 247 233 225 223 217 223 225 224 222 222 220 215 210 205 203 205 209 213 215 216 218 215 218
208 224 230 210 222 229 251 240 260 284 272 239 348 122 335 354 335 332 336 326 315 294 296 289 278 264 257 240 229 229 215 218 223 225 224 222 220 216 212 208 204 201 204 207 214 213 212 214 218
219 221 215 216 213 269 281 268 294 286 222 343 320 8 331 309 328 334 328 318 315 314 312 267 263 250 245 251 237 234 227 223 226 228 227 224 222 216 213 207 209 206 202 204 206 209 208 210 214